Regional Weather Roundup
Issued by NWS

Home | Current Version | Previous Version | Text Only | Print | Product List | Glossary On
Versions: 1 2 3 4 5 6 7 8 9 10 11 12 13 14 15 16 17 18 19 20 21 22 23 24 25 26 27
000
ASUS42 KFFC 280503
RWRGA
WEATHER ROUNDUP FOR GEORGIA
NATIONAL WEATHER SERVICE PEACHTREE CITY GA
100 AM EDT SUN AUG 28 2016

NOTE: "FAIR" INDICATES FEW OR NO CLOUDS BELOW 12,000 FEET WITH NO
SIGNIFICANT WEATHER AND/OR OBSTRUCTIONS TO VISIBILITY.

* = USE WITH CAUTION. THE STATIONS MARKED WITH AN ASTERISK MAY NOT
REPORT WEATHER SUCH AS PRECIPITATION, FOG, OR THUNDER AND ARE NOT
QUALITY CONTROLLED BY NWS.

THE REMARK "TC" DENOTES TEMPERATURE READING IN DEGREES CELSIUS.

GAZ001>058-280600-
NORTH GEORGIA

CITY           SKY/WX    TMP DP  RH WIND       PRES   REMARKS
ATLANTA        CLEAR     79  72  79 E8        30.12S
ATHENS         PTCLDY    78  73  84 NE6       30.14S
CHAMBLEE       CLEAR     79  70  74 E3        30.13S
PEACHTREE CITY CLEAR     71  70  96 CALM      30.11S
ROME           CLEAR     79  71  76 CALM      30.10S
WEST ATLANTA   CLEAR     77  71  82 CALM      30.11S
GAINESVILLE    CLEAR     77  68  73 E8        30.18F
CARTERSVILLE   CLEAR     75  70  84 CALM      30.12S


CITY           SKY/WX    TMP DP  RH WIND       PRES   REMARKS
DALTON*        CLEAR     72  72 100 CALM      30.12S
MARIETTA       CLEAR     78  71  77 NE2       30.13S
CANTON*        CLEAR    N/A N/A N/A CALM      30.17R
BLAIRSVILLE*     N/A    N/A N/A N/A MISG      30.21F FOG
$$

GAZ059>098-102>109-280600-
CENTRAL GEORGIA

CITY           SKY/WX    TMP DP  RH WIND       PRES   REMARKS
AUGUSTA-BUSH   PTCLDY    74  70  87 CALM      30.10S
AUGUSTA-DANIEL PTCLDY    81  68  64 SE5       30.12S
COLUMBUS       PTCLDY    80  60  50 E3        30.06S
MACON          CLEAR     74  65  73 SE7       30.08F
ROBINS AFB     CLEAR     74  69  84 MISG      30.07F


CITY           SKY/WX    TMP DP  RH WIND       PRES   REMARKS
LAGRANGE*      PTCLDY    73  72  95 CALM      30.09S
MILLEDGEVILLE* CLEAR     77  70  78 CALM      30.10F
$$

GAZ099>101-110>166-280600-
SOUTH GEORGIA

CITY           SKY/WX    TMP DP  RH WIND       PRES   REMARKS
SAVANNAH       CLEAR     79  74  84 NE6       30.08S
VALDOSTA       PTCLDY    78  76  93 NE5       30.04F
ALMA           CLEAR     76  74  93 E3        30.06F
ST SIMONS      PTCLDY    82  75  79 E12       30.04F
FT STEWART     CLEAR     76  73  91 CALM      30.05S
ALBANY         CLEAR     79  71  76 E3        30.07S
HUNTER AFB     CLEAR     79  78  99 NE6       30.04F
MOODY AFB      PTCLDY    76  72  86 NE5       30.03F
BRUNSWICK      CLEAR     77  77 100 NE5       30.06S


CITY           SKY/WX    TMP DP  RH WIND       PRES   REMARKS
BAINBRIDGE*    CLEAR     79  72  78 CALM      30.03S
MOULTRIE*      CLEAR     79  72  78 E3        30.05F
VIDALIA*       CLEAR     77  75  94 E5        30.09F
WAYCROSS*        N/A     80  79  95 E8        30.06F
DOUGLAS*       CLEAR     77  72  83 E5        30.08S
$$




USA.gov is the U.S. government's official web portal to all federal, state and local government web resources and services.